Location: Unspecified
(0.0000°N, 0.0000°E)
Time: 23:19:17
(UTC+00:00)

Envisat - Pass Details

Date: 28 November 2022
Orbit: 763 x 765 km, 98.2° (Epoch: 02 December)

Event Time Altitude Azimuth Distance (km) Brightness Sun altitude
Exits shadow 04:25:58 36° 288° (WNW) 1,196 3.4 -19.0°
Maximum altitude 04:26:10 36° 282° (WNW) 1,193 3.5 -19.0°
Drops below altitude 10° 04:30:48 10° 216° (SW) 2,299 5.3 -17.9°
Sets 04:33:16 0° 208° (SSW) 3,228 6.2 -17.3°
